SCP
0 0 0 0 0 0 0 0 -0 -0 0 0 -0 -0 -0 -0 0 0 0 -0 0 0 0 0 0 -0 -0 -0 -0 -0 -0 -0 -0 -0 -0 -0 -0 -0 -0 -0 -0 -0 -0 -0 -0 -0 -0 -0 -0
0 0 0 0 0 0 -0 -0 0 0 0 0 -0 -0 -0 -0 -0 0 0 0 0 0 0 0 0 0 -0 -0 0 0 -0 -0 -0 -0 -0 -0 -0 -0 -0 -0 -0 -0 -0 -0 -0 -0 0 0 0
0 0 0 0 0 -0 -0 -0 0 0 0 0 0 0 0 0 0 0 0 0 0 0 0 0 0 0 0 0 0 0 0 0 0 0 0 -0 -0 -0 -0 0 -0 -0 -0 -0 0 0 0 0 0
0 0 0 0 0 -0 -0 0 0 0 0 0 0 -0 0 0 0 0 0 0 0 0 0 0 0 0 -0 -0 0 0 -0 0 0 0 0 0 0 0 -0 -0 -0 -0 -0 -0 0 0 0 0 0
0 0 0 -0 -0 0 0 0 -0 0 0 0 1 0 1 0 0 0 0 0 0 0 0 0 0 0 0 -0 -0 -0 -0 -0 -0 -0 0 0 0 -0 -0 -0 -0 -0 -0 0 0 0 0 0 0
-0 0 0 0 0 0 0 0 -0 -0 0 0 0 0 0 0 0 1 1 1 0 0 0 0 0 0 0 -0 -0 0 -0 -0 0 0 0 0 -0 -0 -0 -0 0 0 0 0 0 0 0 0 0
0 0 -0 0 0 0 0 -0 -0 0 -0 0 0 0 0 1 1 2 2 1 0 0 0 0 0 0 0 -0 -0 0 0 0 0 0 0 0 0 -0 -0 0 0 0 0 0 0 0 0 0 0
-0 -0 0 0 -0 0 0 0 0 0 0 0 0 0 1 1 1 1 1 1 1 1 1 1 0 0 0 0 -0 0 0 0 0 0 0 -0 0 -0 -0 0 0 0 0 0 0 0 0 0 0
0 -0 0 0 0 0 0 -0 0 0 0 0 0 0 0 0 0 0 1 0 0 0 1 1 0 0 0 0 0 0 -0 -0 -0 -0 -0 0 0 0 0 0 0 0 0 0 0 0 0 0 0
0 -0 0 0 0 0 0 0 0 0 1 1 -1 0 0 0 0 0 0 0 0 0 1 0 -0 0 0 0 0 0 -0 0 0 0 0 0 0 0 0 0 0 0 0 0 0 0 0 0 0
-0 -0 -0 0 0 0 -0 0 0 0 0 0 0 0 0 0 0 0 0 0 0 0 0 0 -0 0 0 0 0 0 0 0 0 0 0 0 0 0 0 0 0 0 0 0 0 0 0 0 0
0 -0 0 -0 0 0 -0 0 0 0 0 0 0 0 0 0 0 0 0 0 0 0 0 0 0 0 0 0 0 0 0 0 0 0 0 0 0 0 0 0 0 0 0 0 0 0 0 0 0
0 -0 0 0 0 0 0 0 0 0 0 0 0 0 0 0 0 0 0 0 0 0 0 0 0 0 0 0 0 0 0 0 0 0 0 0 0 0 0 0 0 0 0 0 0 0 0 0 0
0 0 0 0 0 0 0 0 0 0 0 0 0 0 0 0 0 0 0 0 0 0 0 0 0 0 0 0 0 0 0 0 0 0 0 0 0 0 0 0 0 0 0 0 0 0 0 0 0
0 0 0 0 0 0 0 0 0 0 0 0 0 0 0 0 0 0 0 0 0 0 0 0 0 0 0 0 0 0 0 0 0 0 0 0 0 0 0 0 0 0 0 0 0 0 0 0 0
0 0 -0 0 0 0 0 0 0 0 0 0 0 0 0 0 0 0 0 0 0 0 0 0 0 0 0 0 0 0 0 0 0 0 0 0 0 0 0 0 0 0 0 0 0 0 0 0 0
0 -0 -0 0 0 0 0 0 0 0 0 0 0 0 0 0 0 0 0 0 0 0 0 0 0 0 0 0 0 0 0 0 0 0 0 0 0 0 0 0 0 0 0 0 0 0 0 0 0
0 0 0 0 0 0 0 0 0 0 0 0 0 0 0 0 0 0 0 0 0 0 0 0 0 0 0 0 0 0 0 0 0 0 0 0 0 0 0 0 0 0 0 0 0 0 0 0 0
0 0 0 0 0 0 0 0 0 0 0 0 0 0 0 0 0 0 0 0 -0 0 0 0 0 0 -0 -0 0 -0 0 0 0 0 0 0 0 0 0 0 0 0 0 0 0 0 0 0 0
0 0 0 0 0 0 0 0 -0 0 0 0 0 0 0 0 0 0 0 0 0 0 0 0 0 -0 -0 -0 0 0 0 0 0 0 0 0 0 0 0 0 0 0 0 0 0 0 0 0 0
0 0 0 -0 0 0 -0 0 0 0 0 0 0 0 0 -0 0 0 0 0 0 0 0 0 0 -0 0 0 0 0 0 -0 -0 0 0 0 0 0 0 0 0 0 0 0 0 0 0 0 0
0 0 -0 0 0 0 0 0 0 -0 0 0 0 -0 -0 -0 -0 0 0 0 0 0 0 0 0 0 0 0 0 -0 0 0 0 0 0 0 0 0 0 0 0 0 0 0 0 0 0 0 0
0 0 0 0 0 0 -0 0 0 0 0 0 -0 -0 -0 -0 -0 0 0 0 0 0 0 0 0 0 0 0 0 0 0 0 0 0 0 0 0 0 0 0 0 0 0 0 0 0 0 0 0
-0 0 0 0 0 0 0 -0 0 0 0 -0 -0 -0 -0 -0 -0 0 0 0 0 0 0 0 0 0 0 0 0 0 0 0 0 0 0 0 0 0 0 0 0 0 0 0 0 0 0 0 0
0 0 0 0 0 0 0 0 0 0 0 0 -0 -0 -0 -0 -0 0 0 0 0 0 0 0 0 0 0 0 0 0 0 0 0 0 0 0 0 0 0 0 0 0 0 0 0 0 0 0 0
0 0 0 0 0 0 0 0 0 0 0 0 -0 0 0 0 0 0 0 0 0 0 0 0 0 0 0 0 0 0 0 0 0 0 0 0 0 0 0 0 0 0 0 0 0 0 0 0 0
0 0 -0 -0 0 0 0 0 0 0 0 0 0 0 0 0 0 0 0 0 0 0 0 0 0 0 0 0 0 0 0 0 0 0 0 0 0 0 0 0 0 0 0 0 0 0 0 0 0
-0 -0 0 0 0 0 0 0 0 0 0 0 0 0 0 0 0 0 0 0 0 0 0 0 0 0 0 0 0 0 0 0 0 0 0 0 0 0 0 0 0 0 0 0 0 0 0 0 0
0 0 0 0 0 0 0 0 0 0 0 0 0 0 0 0 0 0 0 0 0 0 0 0 0 0 0 0 0 0 0 0 0 0 0 0 0 0 0 0 0 0 0 0 0 0 0 0 0
0 0 0 0 0 0 0 0 0 0 0 0 0 0 0 0 0 0 0 0 0 0 0 0 0 0 0 0 0 0 0 0 0 0 0 0 0 0 0 0 0 0 0 0 0 0 0 0 0
Wind_Speed_500mb
14 13 29 29 10 15 12 13 31 28 32 34 42 47 46 49 26 24 35 29 29 32 30 27 24 20 17 16 15 13 11 12 13 14 14 15 16 18 19 21 23 25 25 25 25 23 22 21 21
14 15 19 17 14 7 6 25 33 27 31 18 53 35 55 44 46 43 42 31 32 34 32 30 28 25 21 19 16 15 14 15 13 12 13 15 15 16 17 18 19 20 20 20 20 18 18 17 15
18 12 23 11 21 11 22 28 27 25 9 10 24 40 27 26 26 42 40 39 36 30 33 31 29 27 25 22 19 17 15 14 13 14 14 13 13 13 13 14 13 12 12 12 12 12 12 11 11
16 20 22 18 11 25 27 20 21 20 7 3 55 30 32 26 37 44 39 36 38 26 34 32 28 25 25 23 21 19 17 16 15 13 11 9 9 8 5 5 8 11 13 14 15 15 13 12 13
23 18 20 34 16 24 15 21 20 4 13 61 57 16 45 41 44 38 41 41 32 24 33 31 27 23 20 17 15 14 13 13 12 10 8 5 2 2 4 5 6 7 11 15 18 21 23 24 23
12 15 28 18 22 17 15 16 14 10 17 50 32 51 43 38 41 45 43 37 20 26 31 26 23 19 18 16 13 11 11 9 7 9 8 8 7 10 13 16 18 20 21 20 21 21 21 21 22
25 18 39 24 10 13 20 13 25 25 42 41 58 27 29 47 39 40 49 38 26 22 26 23 17 16 16 13 13 12 14 12 10 8 7 13 14 16 17 16 16 17 19 21 23 23 22 22 24
24 20 40 19 14 25 20 3 4 12 27 13 12 17 29 50 40 35 37 37 40 36 25 18 15 14 12 11 11 14 9 5 12 9 19 17 8 10 9 17 16 16 17 20 19 18 18 20 22
30 20 22 28 19 17 17 20 13 20 38 51 36 54 60 45 47 35 43 38 35 33 27 21 7 9 14 11 10 3 8 8 22 16 35 4 7 17 18 19 18 19 21 24 22 18 17 16 25
20 20 26 21 19 21 12 3 16 20 55 51 56 56 55 54 43 48 34 36 35 31 24 15 14 10 15 17 9 16 8 10 12 14 27 4 7 10 12 12 13 15 16 19 20 17 17 17 8
21 21 23 15 20 16 14 9 30 35 29 46 57 56 55 48 46 36 34 36 33 29 22 16 14 14 15 8 12 11 16 16 5 4 5 11 11 16 13 18 18 17 19 19 20 23 24 22 21
9 40 12 23 14 12 17 43 45 36 51 42 49 48 52 44 41 37 33 27 23 22 18 11 9 11 16 12 9 8 12 5 7 12 12 13 14 16 18 17 16 19 21 22 26 29 33 32 30
18 32 6 23 4 13 9 38 34 33 32 41 43 42 41 42 38 28 27 23 16 16 12 14 10 8 12 11 5 6 5 12 16 17 19 20 18 17 16 20 23 25 24 27 26 24 25 24 25
24 23 28 17 11 3 14 36 12 11 26 39 41 39 38 41 32 31 21 14 15 9 9 14 16 9 10 10 13 17 24 24 24 23 22 21 25 26 22 19 19 18 21 19 21 19 21 17 16
23 22 21 18 11 10 24 26 20 12 17 33 38 38 38 39 29 21 17 11 16 15 12 13 23 29 29 33 36 29 25 20 19 19 21 22 20 18 15 19 19 23 23 16 16 21 16 23 21
25 24 23 23 13 18 20 21 24 19 23 26 31 32 37 31 28 19 22 16 19 19 18 24 27 26 26 29 30 25 22 21 18 16 19 20 20 17 15 17 20 19 20 21 19 21 21 28 23
24 22 32 21 18 11 23 32 28 22 28 28 26 28 31 29 27 20 23 28 29 23 28 28 25 28 30 26 22 26 23 19 15 13 16 18 18 20 21 23 21 19 19 25 25 22 24 29 29
26 23 11 10 21 12 32 34 31 29 29 29 25 28 29 27 21 29 29 30 31 31 29 25 25 25 24 21 21 20 20 20 12 14 16 16 21 20 15 20 18 17 21 26 29 26 22 25 32
19 25 26 2 19 4 8 36 32 36 32 31 27 25 26 23 31 33 34 32 32 31 28 24 24 23 21 21 19 21 17 13 10 14 16 19 21 23 24 16 17 15 21 28 33 34 28 26 36
18 26 25 12 14 2 24 29 35 39 38 35 33 30 30 36 38 37 37 35 28 29 28 24 24 24 16 18 18 19 20 10 8 12 17 18 20 25 28 21 21 21 23 29 33 36 34 29 33
24 27 26 29 19 17 27 21 34 32 31 33 34 33 33 39 43 41 41 37 33 32 28 22 18 22 20 21 17 13 13 16 17 11 15 20 23 28 29 22 21 23 26 32 34 34 32 29 26
26 26 28 16 11 19 31 23 34 40 28 34 37 42 44 46 43 42 42 40 35 31 27 22 20 23 21 14 8 11 9 17 9 9 14 23 20 26 26 22 23 25 29 30 31 31 29 26 23
24 12 10 16 22 25 32 19 28 46 36 34 42 48 52 50 47 46 45 41 36 33 31 28 26 20 17 20 11 14 15 7 6 8 12 18 27 27 26 21 22 24 27 28 29 27 26 23 20
24 11 20 19 22 22 32 28 16 29 36 40 54 59 62 56 50 48 44 41 39 33 32 35 28 26 20 17 20 18 19 16 10 9 2 7 17 29 22 19 20 23 25 26 27 24 22 24 21
21 18 16 18 17 23 34 23 14 27 22 47 45 60 62 59 56 53 51 47 45 41 41 36 32 27 24 22 18 18 17 18 20 10 18 13 18 25 20 17 19 22 24 24 23 20 19 25 23
30 28 16 25 10 10 25 12 14 26 15 43 56 52 53 57 59 56 52 48 49 45 41 36 34 29 26 24 23 22 19 15 21 20 19 18 21 23 17 16 18 19 20 20 19 15 17 23 22
28 30 33 29 25 13 13 9 11 17 18 20 46 50 55 56 59 55 51 49 50 48 44 40 38 34 31 27 27 22 20 23 25 19 18 21 18 17 17 17 17 20 22 23 19 13 19 23 22
34 22 20 14 12 19 16 27 14 24 18 19 34 45 53 57 58 55 54 50 51 50 45 43 41 39 38 35 31 26 24 25 25 22 22 22 21 16 18 18 19 19 21 23 21 16 19 22 23
24 25 21 19 17 8 7 7 15 20 20 15 25 36 49 57 61 60 56 51 53 49 50 49 47 44 45 43 33 29 25 24 21 24 25 23 20 18 17 19 19 19 21 23 22 21 16 26 24
27 31 28 6 14 3 4 7 8 9 11 30 24 32 35 49 57 56 52 49 46 46 50 54 50 52 54 45 38 32 31 26 24 25 25 23 20 21 19 20 20 21 22 24 23 22 23 26 27
Wind_Direction_500mb
292 296 328 300 255 220 75 75 85 80 81 69 58 71 68 56 55 98 107 113 116 113 109 109 108 107 105 112 113 105 90 81 83 88 83 76 74 72 68 65 60 60 63 57 56 54 52 47 44
309 304 279 277 252 336 8 69 69 69 80 93 105 99 75 83 91 114 113 114 112 112 110 106 102 99 95 94 93 91 91 96 99 93 85 89 89 82 76 73 72 65 62 63 64 61 57 54 53
322 318 287 226 244 21 57 58 80 83 123 189 98 83 74 94 81 117 121 117 111 119 116 110 106 104 104 103 103 104 104 103 100 94 94 91 84 76 67 66 66 67 63 60 56 50 49 46 46
323 268 252 249 23 59 22 52 96 137 136 337 92 81 75 85 111 120 120 116 123 128 120 115 113 113 112 111 119 126 126 124 115 107 95 79 72 73 71 47 33 23 16 11 8 4 5 8 8
271 265 265 267 29 75 29 35 339 97 110 83 95 73 88 93 117 116 119 125 134 122 122 120 115 111 107 110 118 125 134 134 130 125 121 115 95 342 344 11 7 5 2 359 354 350 349 347 346
293 274 289 314 104 70 71 23 345 318 107 116 99 122 99 111 116 110 120 113 119 125 121 114 109 109 103 101 99 83 62 57 65 65 53 17 339 337 348 351 346 350 349 352 353 349 345 341 340
251 283 281 333 19 122 70 333 357 4 58 58 125 113 109 103 124 143 131 132 135 97 111 117 123 127 110 101 90 80 69 44 42 27 354 359 349 342 339 344 351 358 0 359 357 350 350 349 344
300 284 289 257 3 82 74 286 352 48 53 60 168 127 140 130 144 135 136 130 122 114 114 108 133 121 114 107 123 116 41 37 330 55 342 331 347 356 20 41 29 23 14 5 359 1 354 357 358
284 271 299 23 61 62 89 339 102 76 74 61 72 119 134 138 133 113 118 126 126 121 119 125 123 91 115 130 163 213 190 7 291 296 298 50 14 42 36 31 31 27 31 30 29 28 27 25 18
291 291 14 26 35 17 12 252 22 111 94 84 97 117 130 132 130 125 121 127 129 133 149 152 145 173 173 157 229 210 228 296 287 247 251 202 46 27 21 21 19 25 23 35 23 21 20 24 0
340 314 339 345 35 7 326 314 72 80 115 137 137 134 134 132 126 119 116 126 142 148 153 169 176 190 174 352 308 224 266 261 229 104 57 41 40 35 41 43 49 42 37 28 7 6 4 0 352
306 307 288 316 55 318 298 78 65 66 104 125 133 136 132 119 122 134 125 128 147 144 152 113 132 200 215 268 210 229 277 77 85 78 80 80 81 76 66 51 37 24 17 13 11 16 9 8 7
286 284 307 285 306 266 30 76 91 74 105 123 129 132 128 129 127 124 125 147 137 131 112 111 122 211 233 224 213 285 103 99 93 89 86 82 77 65 52 40 27 16 19 16 9 28 19 17 25
303 295 288 268 264 238 161 125 106 52 117 133 135 134 134 135 132 129 153 131 136 129 98 92 116 139 156 182 134 106 93 91 91 88 81 72 58 52 30 39 28 17 13 30 9 32 29 20 25
282 272 245 230 213 214 141 137 98 105 132 153 136 140 144 132 138 134 156 128 131 109 95 105 106 107 109 102 95 97 88 83 88 82 75 69 65 60 25 17 24 22 4 13 23 15 40 4 2
260 256 270 166 188 185 227 124 120 134 146 136 141 141 133 144 137 140 130 119 111 106 109 108 109 112 116 114 117 116 106 89 69 62 61 54 51 34 19 23 43 25 4 16 23 20 36 8 7
226 259 243 163 197 197 188 122 140 161 165 162 158 154 157 142 155 144 133 135 133 138 128 130 135 131 127 128 121 119 119 115 104 77 52 46 49 65 16 32 58 11 20 29 33 34 40 7 350
313 239 241 279 157 205 101 122 151 165 172 167 167 164 162 169 158 144 144 140 135 137 142 144 134 129 124 121 115 113 105 99 90 69 67 49 49 63 69 13 61 35 17 24 30 32 51 5 348
311 301 301 225 91 340 324 143 158 168 169 171 166 169 164 167 162 150 146 146 149 148 145 143 141 130 115 98 96 100 115 102 73 73 59 48 45 34 30 30 42 68 12 20 22 22 24 18 1
281 273 266 99 104 240 266 153 151 171 173 180 174 173 177 169 161 157 154 157 158 149 151 155 143 114 126 113 135 142 149 164 38 49 44 32 28 21 18 28 34 35 21 18 16 16 19 31 9
249 257 261 268 159 212 269 174 151 166 167 180 179 178 187 175 170 166 163 167 165 164 163 150 143 143 152 180 163 133 93 76 72 54 353 11 9 10 11 22 25 19 18 16 13 14 17 22 18
253 248 253 291 229 258 221 255 160 162 168 183 183 191 196 181 177 176 173 172 169 179 155 168 169 160 189 137 118 77 95 145 198 268 335 350 357 2 5 10 14 13 10 9 10 9 15 14 18
249 317 249 250 257 262 262 234 230 157 172 186 195 199 197 183 179 183 179 178 173 181 169 175 174 168 173 164 178 147 196 190 179 291 351 345 335 351 359 3 2 2 2 6 6 10 7 12 11
256 221 253 260 262 255 251 257 156 178 189 180 188 192 189 177 182 185 183 180 179 185 181 186 173 188 179 185 184 180 189 180 208 192 203 270 302 322 341 344 347 350 356 0 4 4 358 1 2
229 227 234 230 231 246 246 239 128 166 189 169 179 190 176 175 180 183 183 183 184 187 192 188 176 192 191 190 187 201 210 209 226 231 238 232 270 296 320 331 337 343 348 352 1 354 354 347 352
212 227 234 232 245 354 316 253 120 132 136 168 170 173 173 173 182 185 188 187 192 192 197 185 182 193 195 189 192 206 223 230 235 230 249 268 278 295 309 321 326 333 338 347 358 343 345 337 344
211 218 245 264 271 203 216 109 116 143 148 168 157 168 177 179 184 187 190 191 197 197 200 189 188 196 200 201 212 216 210 224 239 265 265 276 278 303 308 316 324 331 337 344 355 334 327 333 338
246 236 223 238 251 265 253 227 140 163 164 169 158 174 179 184 189 192 194 196 199 203 203 202 192 200 202 212 219 225 230 235 249 264 264 272 283 270 291 311 323 327 329 332 338 330 326 326 331
212 231 246 227 222 244 275 77 169 149 149 168 171 183 185 188 193 196 200 204 199 205 204 207 196 204 207 218 220 227 238 241 253 266 274 277 283 285 294 303 313 313 317 321 325 328 326 317 324
221 212 229 197 228 154 186 154 71 101 143 163 183 185 201 196 200 199 197 201 199 205 201 211 204 208 218 221 220 227 235 244 255 264 268 273 272 285 292 298 302 302 305 313 316 319 319 321 320
Wind_Speed_850mb
14 13 29 29 10 15 12 13 31 28 32 34 42 47 46 49 26 24 35 29 29 32 30 27 24 20 17 16 15 13 11 12 13 14 14 15 16 18 19 21 23 25 25 25 25 23 22 21 21
14 15 19 17 14 7 6 25 33 27 31 18 53 35 55 44 46 43 42 31 32 34 32 30 28 25 21 19 16 15 14 15 13 12 13 15 15 16 17 18 19 20 20 20 20 18 18 17 15
18 12 23 11 21 11 22 28 27 25 9 10 24 40 27 26 26 42 40 39 36 30 33 31 29 27 25 22 19 17 15 14 13 14 14 13 13 13 13 14 13 12 12 12 12 12 12 11 11
16 20 22 18 11 25 27 20 21 20 7 3 55 30 32 26 37 44 39 36 38 26 34 32 28 25 25 23 21 19 17 16 15 13 11 9 9 8 5 5 8 11 13 14 15 15 13 12 13
23 18 20 34 16 24 15 21 20 4 13 61 57 16 45 41 44 38 41 41 32 24 33 31 27 23 20 17 15 14 13 13 12 10 8 5 2 2 4 5 6 7 11 15 18 21 23 24 23
12 15 28 18 22 17 15 16 14 10 17 50 32 51 43 38 41 45 43 37 20 26 31 26 23 19 18 16 13 11 11 9 7 9 8 8 7 10 13 16 18 20 21 20 21 21 21 21 22
25 18 39 24 10 13 20 13 25 25 42 41 58 27 29 47 39 40 49 38 26 22 26 23 17 16 16 13 13 12 14 12 10 8 7 13 14 16 17 16 16 17 19 21 23 23 22 22 24
24 20 40 19 14 25 20 3 4 12 27 13 12 17 29 50 40 35 37 37 40 36 25 18 15 14 12 11 11 14 9 5 12 9 19 17 8 10 9 17 16 16 17 20 19 18 18 20 22
30 20 22 28 19 17 17 20 13 20 38 51 36 54 60 45 47 35 43 38 35 33 27 21 7 9 14 11 10 3 8 8 22 16 35 4 7 17 18 19 18 19 21 24 22 18 17 16 25
20 20 26 21 19 21 12 3 16 20 55 51 56 56 55 54 43 48 34 36 35 31 24 15 14 10 15 17 9 16 8 10 12 14 27 4 7 10 12 12 13 15 16 19 20 17 17 17 8
21 21 23 15 20 16 14 9 30 35 29 46 57 56 55 48 46 36 34 36 33 29 22 16 14 14 15 8 12 11 16 16 5 4 5 11 11 16 13 18 18 17 19 19 20 23 24 22 21
9 40 12 23 14 12 17 43 45 36 51 42 49 48 52 44 41 37 33 27 23 22 18 11 9 11 16 12 9 8 12 5 7 12 12 13 14 16 18 17 16 19 21 22 26 29 33 32 30
18 32 6 23 4 13 9 38 34 33 32 41 43 42 41 42 38 28 27 23 16 16 12 14 10 8 12 11 5 6 5 12 16 17 19 20 18 17 16 20 23 25 24 27 26 24 25 24 25
24 23 28 17 11 3 14 36 12 11 26 39 41 39 38 41 32 31 21 14 15 9 9 14 16 9 10 10 13 17 24 24 24 23 22 21 25 26 22 19 19 18 21 19 21 19 21 17 16
23 22 21 18 11 10 24 26 20 12 17 33 38 38 38 39 29 21 17 11 16 15 12 13 23 29 29 33 36 29 25 20 19 19 21 22 20 18 15 19 19 23 23 16 16 21 16 23 21
25 24 23 23 13 18 20 21 24 19 23 26 31 32 37 31 28 19 22 16 19 19 18 24 27 26 26 29 30 25 22 21 18 16 19 20 20 17 15 17 20 19 20 21 19 21 21 28 23
24 22 32 21 18 11 23 32 28 22 28 28 26 28 31 29 27 20 23 28 29 23 28 28 25 28 30 26 22 26 23 19 15 13 16 18 18 20 21 23 21 19 19 25 25 22 24 29 29
26 23 11 10 21 12 32 34 31 29 29 29 25 28 29 27 21 29 29 30 31 31 29 25 25 25 24 21 21 20 20 20 12 14 16 16 21 20 15 20 18 17 21 26 29 26 22 25 32
19 25 26 2 19 4 8 36 32 36 32 31 27 25 26 23 31 33 34 32 32 31 28 24 24 23 21 21 19 21 17 13 10 14 16 19 21 23 24 16 17 15 21 28 33 34 28 26 36
18 26 25 12 14 2 24 29 35 39 38 35 33 30 30 36 38 37 37 35 28 29 28 24 24 24 16 18 18 19 20 10 8 12 17 18 20 25 28 21 21 21 23 29 33 36 34 29 33
24 27 26 29 19 17 27 21 34 32 31 33 34 33 33 39 43 41 41 37 33 32 28 22 18 22 20 21 17 13 13 16 17 11 15 20 23 28 29 22 21 23 26 32 34 34 32 29 26
26 26 28 16 11 19 31 23 34 40 28 34 37 42 44 46 43 42 42 40 35 31 27 22 20 23 21 14 8 11 9 17 9 9 14 23 20 26 26 22 23 25 29 30 31 31 29 26 23
24 12 10 16 22 25 32 19 28 46 36 34 42 48 52 50 47 46 45 41 36 33 31 28 26 20 17 20 11 14 15 7 6 8 12 18 27 27 26 21 22 24 27 28 29 27 26 23 20
24 11 20 19 22 22 32 28 16 29 36 40 54 59 62 56 50 48 44 41 39 33 32 35 28 26 20 17 20 18 19 16 10 9 2 7 17 29 22 19 20 23 25 26 27 24 22 24 21
21 18 16 18 17 23 34 23 14 27 22 47 45 60 62 59 56 53 51 47 45 41 41 36 32 27 24 22 18 18 17 18 20 10 18 13 18 25 20 17 19 22 24 24 23 20 19 25 23
30 28 16 25 10 10 25 12 14 26 15 43 56 52 53 57 59 56 52 48 49 45 41 36 34 29 26 24 23 22 19 15 21 20 19 18 21 23 17 16 18 19 20 20 19 15 17 23 22
28 30 33 29 25 13 13 9 11 17 18 20 46 50 55 56 59 55 51 49 50 48 44 40 38 34 31 27 27 22 20 23 25 19 18 21 18 17 17 17 17 20 22 23 19 13 19 23 22
34 22 20 14 12 19 16 27 14 24 18 19 34 45 53 57 58 55 54 50 51 50 45 43 41 39 38 35 31 26 24 25 25 22 22 22 21 16 18 18 19 19 21 23 21 16 19 22 23
24 25 21 19 17 8 7 7 15 20 20 15 25 36 49 57 61 60 56 51 53 49 50 49 47 44 45 43 33 29 25 24 21 24 25 23 20 18 17 19 19 19 21 23 22 21 16 26 24
27 31 28 6 14 3 4 7 8 9 11 30 24 32 35 49 57 56 52 49 46 46 50 54 50 52 54 45 38 32 31 26 24 25 25 23 20 21 19 20 20 21 22 24 23 22 23 26 27
Wind_Direction_850mb
292 296 328 300 255 220 75 75 85 80 81 69 58 71 68 56 55 98 107 113 116 113 109 109 108 107 105 112 113 105 90 81 83 88 83 76 74 72 68 65 60 60 63 57 56 54 52 47 44
309 304 279 277 252 336 8 69 69 69 80 93 105 99 75 83 91 114 113 114 112 112 110 106 102 99 95 94 93 91 91 96 99 93 85 89 89 82 76 73 72 65 62 63 64 61 57 54 53
322 318 287 226 244 21 57 58 80 83 123 189 98 83 74 94 81 117 121 117 111 119 116 110 106 104 104 103 103 104 104 103 100 94 94 91 84 76 67 66 66 67 63 60 56 50 49 46 46
323 268 252 249 23 59 22 52 96 137 136 337 92 81 75 85 111 120 120 116 123 128 120 115 113 113 112 111 119 126 126 124 115 107 95 79 72 73 71 47 33 23 16 11 8 4 5 8 8
271 265 265 267 29 75 29 35 339 97 110 83 95 73 88 93 117 116 119 125 134 122 122 120 115 111 107 110 118 125 134 134 130 125 121 115 95 342 344 11 7 5 2 359 354 350 349 347 346
293 274 289 314 104 70 71 23 345 318 107 116 99 122 99 111 116 110 120 113 119 125 121 114 109 109 103 101 99 83 62 57 65 65 53 17 339 337 348 351 346 350 349 352 353 349 345 341 340
251 283 281 333 19 122 70 333 357 4 58 58 125 113 109 103 124 143 131 132 135 97 111 117 123 127 110 101 90 80 69 44 42 27 354 359 349 342 339 344 351 358 0 359 357 350 350 349 344
300 284 289 257 3 82 74 286 352 48 53 60 168 127 140 130 144 135 136 130 122 114 114 108 133 121 114 107 123 116 41 37 330 55 342 331 347 356 20 41 29 23 14 5 359 1 354 357 358
284 271 299 23 61 62 89 339 102 76 74 61 72 119 134 138 133 113 118 126 126 121 119 125 123 91 115 130 163 213 190 7 291 296 298 50 14 42 36 31 31 27 31 30 29 28 27 25 18
291 291 14 26 35 17 12 252 22 111 94 84 97 117 130 132 130 125 121 127 129 133 149 152 145 173 173 157 229 210 228 296 287 247 251 202 46 27 21 21 19 25 23 35 23 21 20 24 0
340 314 339 345 35 7 326 314 72 80 115 137 137 134 134 132 126 119 116 126 142 148 153 169 176 190 174 352 308 224 266 261 229 104 57 41 40 35 41 43 49 42 37 28 7 6 4 0 352
306 307 288 316 55 318 298 78 65 66 104 125 133 136 132 119 122 134 125 128 147 144 152 113 132 200 215 268 210 229 277 77 85 78 80 80 81 76 66 51 37 24 17 13 11 16 9 8 7
286 284 307 285 306 266 30 76 91 74 105 123 129 132 128 129 127 124 125 147 137 131 112 111 122 211 233 224 213 285 103 99 93 89 86 82 77 65 52 40 27 16 19 16 9 28 19 17 25
303 295 288 268 264 238 161 125 106 52 117 133 135 134 134 135 132 129 153 131 136 129 98 92 116 139 156 182 134 106 93 91 91 88 81 72 58 52 30 39 28 17 13 30 9 32 29 20 25
282 272 245 230 213 214 141 137 98 105 132 153 136 140 144 132 138 134 156 128 131 109 95 105 106 107 109 102 95 97 88 83 88 82 75 69 65 60 25 17 24 22 4 13 23 15 40 4 2
260 256 270 166 188 185 227 124 120 134 146 136 141 141 133 144 137 140 130 119 111 106 109 108 109 112 116 114 117 116 106 89 69 62 61 54 51 34 19 23 43 25 4 16 23 20 36 8 7
226 259 243 163 197 197 188 122 140 161 165 162 158 154 157 142 155 144 133 135 133 138 128 130 135 131 127 128 121 119 119 115 104 77 52 46 49 65 16 32 58 11 20 29 33 34 40 7 350
313 239 241 279 157 205 101 122 151 165 172 167 167 164 162 169 158 144 144 140 135 137 142 144 134 129 124 121 115 113 105 99 90 69 67 49 49 63 69 13 61 35 17 24 30 32 51 5 348
311 301 301 225 91 340 324 143 158 168 169 171 166 169 164 167 162 150 146 146 149 148 145 143 141 130 115 98 96 100 115 102 73 73 59 48 45 34 30 30 42 68 12 20 22 22 24 18 1
281 273 266 99 104 240 266 153 151 171 173 180 174 173 177 169 161 157 154 157 158 149 151 155 143 114 126 113 135 142 149 164 38 49 44 32 28 21 18 28 34 35 21 18 16 16 19 31 9
249 257 261 268 159 212 269 174 151 166 167 180 179 178 187 175 170 166 163 167 165 164 163 150 143 143 152 180 163 133 93 76 72 54 353 11 9 10 11 22 25 19 18 16 13 14 17 22 18
253 248 253 291 229 258 221 255 160 162 168 183 183 191 196 181 177 176 173 172 169 179 155 168 169 160 189 137 118 77 95 145 198 268 335 350 357 2 5 10 14 13 10 9 10 9 15 14 18
249 317 249 250 257 262 262 234 230 157 172 186 195 199 197 183 179 183 179 178 173 181 169 175 174 168 173 164 178 147 196 190 179 291 351 345 335 351 359 3 2 2 2 6 6 10 7 12 11
256 221 253 260 262 255 251 257 156 178 189 180 188 192 189 177 182 185 183 180 179 185 181 186 173 188 179 185 184 180 189 180 208 192 203 270 302 322 341 344 347 350 356 0 4 4 358 1 2
229 227 234 230 231 246 246 239 128 166 189 169 179 190 176 175 180 183 183 183 184 187 192 188 176 192 191 190 187 201 210 209 226 231 238 232 270 296 320 331 337 343 348 352 1 354 354 347 352
212 227 234 232 245 354 316 253 120 132 136 168 170 173 173 173 182 185 188 187 192 192 197 185 182 193 195 189 192 206 223 230 235 230 249 268 278 295 309 321 326 333 338 347 358 343 345 337 344
211 218 245 264 271 203 216 109 116 143 148 168 157 168 177 179 184 187 190 191 197 197 200 189 188 196 200 201 212 216 210 224 239 265 265 276 278 303 308 316 324 331 337 344 355 334 327 333 338
246 236 223 238 251 265 253 227 140 163 164 169 158 174 179 184 189 192 194 196 199 203 203 202 192 200 202 212 219 225 230 235 249 264 264 272 283 270 291 311 323 327 329 332 338 330 326 326 331
212 231 246 227 222 244 275 77 169 149 149 168 171 183 185 188 193 196 200 204 199 205 204 207 196 204 207 218 220 227 238 241 253 266 274 277 283 285 294 303 313 313 317 321 325 328 326 317 324
221 212 229 197 228 154 186 154 71 101 143 163 183 185 201 196 200 199 197 201 199 205 201 211 204 208 218 221 220 227 235 244 255 264 268 273 272 285 292 298 302 302 305 313 316 319 319 321 320